Flag Weather past 2 weeks in Fürstenfeld, Styria, Austria

Now
36 °F

Chilly.


Feels Like: 36 °F
Forecast: 36 / 39 °F
Wind: 2 mph from East

Location: Murska Sobota

Current Time: Nov 28, 2014 at 10:59:36 AM

Latest Report: Nov 28, 2014 at 10:00 AM


Visibility: N/A

Pressure: 30.09 "Hg

Humidity: 98%

Dew point: 36 °F

Location of FürstenfeldLocation

Historic Weather in Fürstenfeld — Graph

°F

Fürstenfeld temperature yesterday

Maximum temperature yesterday: 36 °F (at 12:00 AM)
Minimum temperature yesterday: 34 °F (at 11:00 PM)
Average temperature yesterday: 35 °F

Past Weeks' High & Low Weather Summary

 TemperatureHumidityPressure
High63 °F (Nov 16, 2:00 PM)100% (Nov 15, 8:00 PM)30.46 "Hg (Nov 15, 8:00 PM)
Low32 °F (Nov 23, 6:00 AM)60% (Nov 16, 1:00 PM)29.68 "Hg (Nov 18, 6:00 AM)
Average44 °F91%30.11 "Hg
* Reported Nov 13 9:00 AM — Nov 28 9:00 AM, Fürstenfeld, Weather by CustomWeather, © 2014

Note: Actual official high and low records may vary slightly from our data, if they occured in-between our weather recording intervals... More about our weather records

Advertising

Fürstenfeld weather history for previous 24 hours

 ConditionsComfort  
Time TempWeatherWind HumidityBarometerVisibility
9:00 AM
Nov 28
36 °FChilly.2 mph98%30.09 "HgN/A
8:00 AM35 °FFog.2 mph98%30.08 "Hg0 mi
7:00 AM35 °FFog.1 mph98%30.06 "Hg1 mi
6:00 AM35 °FChilly.2 mph96%30.05 "HgN/A
5:00 AM35 °FChilly.1 mph95%30.05 "HgN/A
4:00 AM35 °FChilly.2 mph96%30.04 "HgN/A
3:00 AM35 °FChilly.2 mph95%30.05 "HgN/A
2:00 AM35 °FChilly.2 mph93%30.06 "HgN/A
1:00 AM34 °FChilly.2 mph93%30.06 "HgN/A
12:00 AM34 °FChilly.2 mph93%30.07 "HgN/A
11:00 PM
Nov 27
34 °FChilly.3 mph92%30.08 "HgN/A
10:00 PM35 °FChilly.2 mph89%30.08 "HgN/A
9:00 PM34 °FChilly.2 mph89%30.08 "HgN/A
8:00 PM35 °FChilly.2 mph86%30.08 "HgN/A
7:00 PM35 °FFog.3 mph85%30.08 "Hg1 mi
6:00 PM35 °FChilly.3 mph84%30.07 "HgN/A
5:00 PM36 °FChilly.3 mph82%30.07 "HgN/A
4:00 PM36 °FChilly.3 mph82%30.07 "HgN/A
3:00 PM36 °FChilly.3 mph83%30.07 "HgN/A
2:00 PM36 °FFog.3 mph83%30.08 "Hg1 mi
1:00 PM36 °FFog.2 mph82%30.09 "Hg1 mi
12:00 PM36 °FChilly.3 mph81%30.11 "HgN/A
11:00 AM36 °FChilly.2 mph82%30.13 "HgN/A
10:00 AM35 °FChilly.2 mph81%30.14 "HgN/A
Weather by CustomWeather, © 2014

See weather overviewHow to use our weather pages